Location: The Saddle
(36.8333°N, 80.3417°W)
Time: 06:49:54
(UTC-04:00)

Vanguard 2 Rocket - Pass Details

Date: 03 February 2022
Orbit: 553 x 3323 km, 32.9° (Epoch: 23 May)

Event Time Altitude Azimuth Distance (km) Brightness Sun altitude
Exits shadow 02:30:44 48° 111° (ESE) 3,564 9.7 -57.4°
Drops below altitude 10° 02:43:34 10° 103° (ESE) 6,250 11.4 -55.1°
Sets 02:48:36 0° 102° (ESE) 7,310 11.9 -54.2°
